Time,TemperatureF,DewpointF,PressureIn,WindDirection,WindDirectionDegrees,WindSpeedMPH,WindSpeedGustMPH,Humidity,HourlyPrecipIn,Conditions,Clouds,dailyrainin,SoftwareType,DateUTC
2013-01-13 00:03:00,42.0,-99.9,-100.00,West,275,14.0,14.0,-999,-99.99,,,-99.99,,2013-01-13 05:03:00,
2013-01-13 00:12:00,42.0,-99.9,-100.00,West,275,14.0,14.0,-999,-99.99,,,-99.99,,2013-01-13 05:12:00,
2013-01-13 00:23:00,42.0,-99.9,-100.00,West,275,14.0,14.0,-999,-99.99,,,-99.99,,2013-01-13 05:23:00,
2013-01-13 00:33:00,42.0,-99.9,-100.00,West,275,14.0,14.0,-999,-99.99,,,-99.99,,2013-01-13 05:33:00,
2013-01-13 00:42:00,41.0,-99.9,-100.00,West,275,14.0,14.0,-999,-99.99,,,-99.99,,2013-01-13 05:42:00,
2013-01-13 00:53:00,42.0,-99.9,-100.00,West,275,14.0,14.0,-999,-99.99,,,-99.99,,2013-01-13 05:53:00,
2013-01-13 01:03:00,42.0,-99.9,-100.00,West,275,14.0,14.0,-999,-99.99,,,-99.99,,2013-01-13 06:03:00,
2013-01-13 01:12:00,42.0,-99.9,-100.00,West,275,14.0,14.0,-999,-99.99,,,-99.99,,2013-01-13 06:12:00,
2013-01-13 01:22:00,41.0,-99.9,-100.00,West,275,14.0,14.0,-999,-99.99,,,-99.99,,2013-01-13 06:22:00,
2013-01-13 01:33:00,41.0,-99.9,-100.00,West,275,14.0,14.0,-999,-99.99,,,-99.99,,2013-01-13 06:33:00,
2013-01-13 01:43:00,41.0,-99.9,-100.00,West,275,14.0,14.0,-999,-99.99,,,-99.99,,2013-01-13 06:43:00,
2013-01-13 01:53:00,40.0,-99.9,-100.00,West,275,14.0,14.0,-999,-99.99,,,-99.99,,2013-01-13 06:53:00,
2013-01-13 02:02:00,40.0,-99.9,-100.00,West,275,14.0,14.0,-999,-99.99,,,-99.99,,2013-01-13 07:02:00,
2013-01-13 02:12:00,40.0,-99.9,-100.00,West,275,14.0,14.0,-999,-99.99,,,-99.99,,2013-01-13 07:12:00,
2013-01-13 02:22:00,40.0,-99.9,-100.00,West,275,14.0,14.0,-999,-99.99,,,-99.99,,2013-01-13 07:22:00,
2013-01-13 02:33:00,40.0,-99.9,-100.00,West,275,14.0,14.0,-999,-99.99,,,-99.99,,2013-01-13 07:33:00,
2013-01-13 02:42:00,40.0,-99.9,-100.00,West,275,14.0,14.0,-999,-99.99,,,-99.99,,2013-01-13 07:42:00,
2013-01-13 02:53:00,40.0,-99.9,-100.00,West,275,14.0,14.0,-999,-99.99,,,-99.99,,2013-01-13 07:53:00,
2013-01-13 03:02:00,40.0,-99.9,-100.00,West,275,14.0,14.0,-999,-99.99,,,-99.99,,2013-01-13 08:02:00,
2013-01-13 03:12:00,40.0,-99.9,-100.00,West,275,14.0,14.0,-999,-99.99,,,-99.99,,2013-01-13 08:12:00,
2013-01-13 03:22:00,40.0,-99.9,-100.00,West,275,14.0,14.0,-999,-99.99,,,-99.99,,2013-01-13 08:22:00,
2013-01-13 03:33:00,40.0,-99.9,-100.00,West,275,14.0,14.0,-999,-99.99,,,-99.99,,2013-01-13 08:33:00,
2013-01-13 03:42:00,41.0,-99.9,-100.00,West,275,14.0,14.0,-999,-99.99,,,-99.99,,2013-01-13 08:42:00,
2013-01-13 03:53:00,41.0,-99.9,-100.00,West,275,14.0,14.0,-999,-99.99,,,-99.99,,2013-01-13 08:53:00,
2013-01-13 04:02:00,41.0,-99.9,-100.00,West,275,14.0,14.0,-999,-99.99,,,-99.99,,2013-01-13 09:02:00,
2013-01-13 04:12:00,41.0,-99.9,-100.00,West,275,14.0,14.0,-999,-99.99,,,-99.99,,2013-01-13 09:12:00,
2013-01-13 04:22:00,41.0,-99.9,-100.00,West,275,14.0,14.0,-999,-99.99,,,-99.99,,2013-01-13 09:22:00,
2013-01-13 04:32:00,41.0,-99.9,-100.00,West,275,14.0,14.0,-999,-99.99,,,-99.99,,2013-01-13 09:32:00,
2013-01-13 04:43:00,40.0,-99.9,-100.00,West,275,14.0,14.0,-999,-99.99,,,-99.99,,2013-01-13 09:43:00,
2013-01-13 04:53:00,40.0,-99.9,-100.00,West,275,14.0,14.0,-999,-99.99,,,-99.99,,2013-01-13 09:53:00,
2013-01-13 05:03:00,40.0,-99.9,-100.00,WNW,285,7.0,14.0,-999,-99.99,,,-99.99,,2013-01-13 10:03:00,
2013-01-13 05:12:00,40.0,-99.9,-100.00,WNW,300,20.0,27.0,-999,-99.99,,,-99.99,,2013-01-13 10:12:00,
2013-01-13 05:22:00,40.0,-99.9,-100.00,NW,310,11.0,27.0,-999,-99.99,,,-99.99,,2013-01-13 10:22:00,
2013-01-13 05:33:00,40.0,-99.9,-100.00,WNW,300,13.0,26.0,-999,-99.99,,,-99.99,,2013-01-13 10:33:00,
2013-01-13 05:42:00,40.0,-99.9,-100.00,WNW,300,20.0,21.0,-999,-99.99,,,-99.99,,2013-01-13 10:42:00,
2013-01-13 05:53:00,40.0,-99.9,-100.00,WNW,300,20.0,29.0,-999,-99.99,,,-99.99,,2013-01-13 10:53:00,
2013-01-13 06:02:00,40.0,-99.9,-100.00,WNW,300,11.0,32.0,-999,-99.99,,,-99.99,,2013-01-13 11:02:00,
2013-01-13 06:12:00,40.0,-99.9,-100.00,WNW,300,17.0,21.0,-999,-99.99,,,-99.99,,2013-01-13 11:12:00,
2013-01-13 06:22:00,40.0,-99.9,-100.00,NW,315,9.0,21.0,-999,-99.99,,,-99.99,,2013-01-13 11:22:00,
2013-01-13 06:33:00,40.0,-99.9,-100.00,NW,315,17.0,21.0,-999,-99.99,,,-99.99,,2013-01-13 11:33:00,
2013-01-13 06:43:00,40.0,-99.9,-100.00,WNW,300,21.0,21.0,-999,-99.99,,,-99.99,,2013-01-13 11:43:00,
2013-01-13 06:53:00,40.0,-99.9,-100.00,West,280,14.0,21.0,-999,-99.99,,,-99.99,,2013-01-13 11:53:00,
2013-01-13 07:03:00,40.0,-99.9,-100.00,NW,320,21.0,27.0,-999,-99.99,,,-99.99,,2013-01-13 12:03:00,
2013-01-13 07:12:00,41.0,-99.9,-100.00,NW,320,28.0,28.0,-999,-99.99,,,-99.99,,2013-01-13 12:12:00,
2013-01-13 07:22:00,41.0,-99.9,-100.00,NW,305,11.0,34.0,-999,-99.99,,,-99.99,,2013-01-13 12:22:00,
2013-01-13 07:33:00,41.0,-99.9,-100.00,NW,310,11.0,19.0,-999,-99.99,,,-99.99,,2013-01-13 12:33:00,
2013-01-13 07:43:00,41.0,-99.9,-100.00,NW,315,14.0,23.0,-999,-99.99,,,-99.99,,2013-01-13 12:43:00,
2013-01-13 07:53:00,41.0,-99.9,-100.00,West,280,13.0,21.0,-999,-99.99,,,-99.99,,2013-01-13 12:53:00,
2013-01-13 08:03:00,41.0,-99.9,-100.00,NW,315,24.0,34.0,-999,-99.99,,,-99.99,,2013-01-13 13:03:00,
2013-01-13 08:12:00,41.0,-99.9,-100.00,WNW,300,21.0,24.0,-999,-99.99,,,-99.99,,2013-01-13 13:12:00,
2013-01-13 08:22:00,41.0,-99.9,-100.00,West,280,16.0,23.0,-999,-99.99,,,-99.99,,2013-01-13 13:22:00,
2013-01-13 08:33:00,41.0,-99.9,-100.00,West,275,11.0,20.0,-999,-99.99,,,-99.99,,2013-01-13 13:33:00,
2013-01-13 08:43:00,41.0,-99.9,-100.00,West,275,11.0,20.0,-999,-99.99,,,-99.99,,2013-01-13 13:43:00,
2013-01-13 08:53:00,42.0,-99.9,-100.00,West,280,19.0,20.0,-999,-99.99,,,-99.99,,2013-01-13 13:53:00,
2013-01-13 09:03:00,42.0,-99.9,-100.00,NW,305,11.0,36.0,-999,-99.99,,,-99.99,,2013-01-13 14:03:00,
2013-01-13 09:13:00,42.0,-99.9,-100.00,West,280,10.0,31.0,-999,-99.99,,,-99.99,,2013-01-13 14:13:00,
2013-01-13 09:23:00,42.0,-99.9,-100.00,WNW,285,15.0,33.0,-999,-99.99,,,-99.99,,2013-01-13 14:23:00,
2013-01-13 09:33:00,42.0,-99.9,-100.00,West,280,14.0,32.0,-999,-99.99,,,-99.99,,2013-01-13 14:33:00,
2013-01-13 09:43:00,42.0,-99.9,-100.00,West,280,14.0,32.0,-999,-99.99,,,-99.99,,2013-01-13 14:43:00,
2013-01-13 09:53:00,43.0,-99.9,-100.00,West,280,15.0,24.0,-999,-99.99,,,-99.99,,2013-01-13 14:53:00,
2013-01-13 10:03:00,43.0,-99.9,-100.00,West,280,14.0,21.0,-999,-99.99,,,-99.99,,2013-01-13 15:03:00,
2013-01-13 10:13:00,44.0,-99.9,-100.00,WNW,285,15.0,20.0,-999,-99.99,,,-99.99,,2013-01-13 15:13:00,
2013-01-13 10:23:00,44.0,-99.9,-100.00,West,280,14.0,34.0,-999,-99.99,,,-99.99,,2013-01-13 15:23:00,
2013-01-13 10:33:00,44.0,-99.9,-100.00,WNW,285,12.0,20.0,-999,-99.99,,,-99.99,,2013-01-13 15:33:00,
2013-01-13 10:43:00,45.0,-99.9,-100.00,WNW,285,11.0,26.0,-999,-99.99,,,-99.99,,2013-01-13 15:43:00,
2013-01-13 10:53:00,45.0,-99.9,-100.00,West,275,9.0,24.0,-999,-99.99,,,-99.99,,2013-01-13 15:53:00,
2013-01-13 11:04:00,46.0,-99.9,-100.00,WNW,290,11.0,28.0,-999,-99.99,,,-99.99,,2013-01-13 16:04:00,
2013-01-13 11:13:00,46.0,-99.9,-100.00,West,275,10.0,27.0,-999,-99.99,,,-99.99,,2013-01-13 16:13:00,
2013-01-13 11:23:00,46.0,-99.9,-100.00,West,275,8.0,27.0,-999,-99.99,,,-99.99,,2013-01-13 16:23:00,
2013-01-13 11:34:00,47.0,-99.9,-100.00,West,275,11.0,20.0,-999,-99.99,,,-99.99,,2013-01-13 16:34:00,
2013-01-13 11:43:00,47.0,-99.9,-100.00,WNW,290,10.0,19.0,-999,-99.99,,,-99.99,,2013-01-13 16:43:00,
2013-01-13 11:53:00,48.0,-99.9,-100.00,West,275,8.0,20.0,-999,-99.99,,,-99.99,,2013-01-13 16:53:00,
2013-01-13 12:03:00,48.0,-99.9,-100.00,WNW,290,11.0,20.0,-999,-99.99,,,-99.99,,2013-01-13 17:03:00,
2013-01-13 12:13:00,48.0,-99.9,-100.00,SW,230,7.0,29.0,-999,-99.99,,,-99.99,,2013-01-13 17:13:00,
2013-01-13 12:23:00,49.0,-99.9,-100.00,West,275,7.0,21.0,-999,-99.99,,,-99.99,,2013-01-13 17:23:00,
2013-01-13 12:33:00,49.0,-99.9,-100.00,West,275,10.0,24.0,-999,-99.99,,,-99.99,,2013-01-13 17:33:00,
2013-01-13 12:43:00,49.0,-99.9,-100.00,West,275,9.0,25.0,-999,-99.99,,,-99.99,,2013-01-13 17:43:00,
2013-01-13 12:53:00,49.0,-99.9,-100.00,WSW,250,8.0,24.0,-999,-99.99,,,-99.99,,2013-01-13 17:53:00,
2013-01-13 13:03:00,49.0,-99.9,-100.00,West,275,8.0,16.0,-999,-99.99,,,-99.99,,2013-01-13 18:03:00,
2013-01-13 13:12:00,49.0,-99.9,-100.00,West,275,9.0,26.0,-999,-99.99,,,-99.99,,2013-01-13 18:12:00,
2013-01-13 13:23:00,50.0,-99.9,-100.00,West,280,13.0,24.0,-999,-99.99,,,-99.99,,2013-01-13 18:23:00,
2013-01-13 13:33:00,50.0,-99.9,-100.00,West,280,16.0,17.0,-999,-99.99,,,-99.99,,2013-01-13 18:33:00,
2013-01-13 13:43:00,50.0,-99.9,-100.00,West,280,16.0,17.0,-999,-99.99,,,-99.99,,2013-01-13 18:43:00,
2013-01-13 13:54:00,50.0,-99.9,-100.00,West,280,16.0,17.0,-999,-99.99,,,-99.99,,2013-01-13 18:54:00,
2013-01-13 14:03:00,51.0,-99.9,-100.00,West,280,21.0,26.0,-999,-99.99,,,-99.99,,2013-01-13 19:03:00,
2013-01-13 14:12:00,51.0,-99.9,-100.00,West,275,26.0,26.0,-999,-99.99,,,-99.99,,2013-01-13 19:12:00,
2013-01-13 14:23:00,52.0,-99.9,-100.00,West,275,26.0,26.0,-999,-99.99,,,-99.99,,2013-01-13 19:23:00,
2013-01-13 14:33:00,52.0,-99.9,-100.00,West,275,4.0,26.0,-999,-99.99,,,-99.99,,2013-01-13 19:33:00,
2013-01-13 14:43:00,52.0,-99.9,-100.00,WSW,240,5.0,14.0,-999,-99.99,,,-99.99,,2013-01-13 19:43:00,
2013-01-13 14:53:00,52.0,-99.9,-100.00,WSW,240,5.0,14.0,-999,-99.99,,,-99.99,,2013-01-13 19:53:00,
2013-01-13 15:03:00,52.0,-99.9,-100.00,WSW,240,5.0,14.0,-999,-99.99,,,-99.99,,2013-01-13 20:03:00,
2013-01-13 15:12:00,53.0,-99.9,-100.00,West,280,19.0,19.0,-999,-99.99,,,-99.99,,2013-01-13 20:12:00,
2013-01-13 15:23:00,53.0,-99.9,-100.00,NW,310,21.0,24.0,-999,-99.99,,,-99.99,,2013-01-13 20:23:00,
2013-01-13 15:33:00,54.0,-99.9,-100.00,West,280,14.0,21.0,-999,-99.99,,,-99.99,,2013-01-13 20:33:00,
2013-01-13 15:43:00,54.0,-99.9,-100.00,WNW,295,17.0,21.0,-999,-99.99,,,-99.99,,2013-01-13 20:43:00,
2013-01-13 15:53:00,54.0,-99.9,-100.00,West,275,10.0,21.0,-999,-99.99,,,-99.99,,2013-01-13 20:53:00,
2013-01-13 16:03:00,55.0,-99.9,-100.00,SW,230,7.0,21.0,-999,-99.99,,,-99.99,,2013-01-13 21:03:00,
2013-01-13 16:13:00,54.0,-99.9,-100.00,West,275,7.0,22.0,-999,-99.99,,,-99.99,,2013-01-13 21:13:00,
2013-01-13 16:23:00,54.0,-99.9,-100.00,West,275,11.0,21.0,-999,-99.99,,,-99.99,,2013-01-13 21:23:00,
2013-01-13 16:33:00,55.0,-99.9,-100.00,WSW,245,6.0,21.0,-999,-99.99,,,-99.99,,2013-01-13 21:33:00,
2013-01-13 16:43:00,55.0,-99.9,-100.00,West,275,8.0,19.0,-999,-99.99,,,-99.99,,2013-01-13 21:43:00,
2013-01-13 16:53:00,54.0,-99.9,-100.00,West,280,9.0,23.0,-999,-99.99,,,-99.99,,2013-01-13 21:53:00,
2013-01-13 17:03:00,54.0,-99.9,-100.00,West,280,10.0,21.0,-999,-99.99,,,-99.99,,2013-01-13 22:03:00,
2013-01-13 17:13:00,54.0,-99.9,-100.00,West,280,10.0,24.0,-999,-99.99,,,-99.99,,2013-01-13 22:13:00,
2013-01-13 17:23:00,54.0,-99.9,-100.00,West,275,9.0,24.0,-999,-99.99,,,-99.99,,2013-01-13 22:23:00,
2013-01-13 17:33:00,54.0,-99.9,-100.00,West,275,6.0,20.0,-999,-99.99,,,-99.99,,2013-01-13 22:33:00,
2013-01-13 17:43:00,54.0,-99.9,-100.00,West,275,6.0,20.0,-999,-99.99,,,-99.99,,2013-01-13 22:43:00,
2013-01-13 17:53:00,54.0,-99.9,-100.00,West,275,9.0,19.0,-999,-99.99,,,-99.99,,2013-01-13 22:53:00,
2013-01-13 18:03:00,54.0,-99.9,-100.00,West,275,7.0,15.0,-999,-99.99,,,-99.99,,2013-01-13 23:03:00,
2013-01-13 18:12:00,54.0,-99.9,-100.00,West,275,7.0,15.0,-999,-99.99,,,-99.99,,2013-01-13 23:12:00,
2013-01-13 18:23:00,53.0,-99.9,-100.00,West,275,13.0,14.0,-999,-99.99,,,-99.99,,2013-01-13 23:23:00,
2013-01-13 18:33:00,52.0,-99.9,-100.00,SW,230,4.0,21.0,-999,-99.99,,,-99.99,,2013-01-13 23:33:00,
2013-01-13 18:43:00,52.0,-99.9,-100.00,SW,230,4.0,21.0,-999,-99.99,,,-99.99,,2013-01-13 23:43:00,
2013-01-13 18:53:00,52.0,-99.9,-100.00,West,280,14.0,24.0,-999,-99.99,,,-99.99,,2013-01-13 23:53:00,
2013-01-13 19:03:00,52.0,-99.9,-100.00,WNW,285,14.0,21.0,-999,-99.99,,,-99.99,,2013-01-14 00:03:00,
2013-01-13 19:13:00,52.0,-99.9,-100.00,WNW,285,14.0,24.0,-999,-99.99,,,-99.99,,2013-01-14 00:13:00,
2013-01-13 19:23:00,51.0,-99.9,-100.00,West,280,12.0,24.0,-999,-99.99,,,-99.99,,2013-01-14 00:23:00,
2013-01-13 19:33:00,51.0,-99.9,-100.00,West,280,12.0,24.0,-999,-99.99,,,-99.99,,2013-01-14 00:33:00,
2013-01-13 19:43:00,51.0,-99.9,-100.00,West,280,14.0,24.0,-999,-99.99,,,-99.99,,2013-01-14 00:43:00,
2013-01-13 19:53:00,51.0,-99.9,-100.00,West,280,13.0,21.0,-999,-99.99,,,-99.99,,2013-01-14 00:53:00,
2013-01-13 20:03:00,51.0,-99.9,-100.00,West,280,14.0,24.0,-999,-99.99,,,-99.99,,2013-01-14 01:03:00,
2013-01-13 20:13:00,51.0,-99.9,-100.00,West,280,13.0,24.0,-999,-99.99,,,-99.99,,2013-01-14 01:13:00,
2013-01-13 20:23:00,51.0,-99.9,-100.00,WNW,285,13.0,15.0,-999,-99.99,,,-99.99,,2013-01-14 01:23:00,
2013-01-13 20:33:00,51.0,-99.9,-100.00,West,280,13.0,15.0,-999,-99.99,,,-99.99,,2013-01-14 01:33:00,
2013-01-13 20:43:00,51.0,-99.9,-100.00,West,280,13.0,15.0,-999,-99.99,,,-99.99,,2013-01-14 01:43:00,
2013-01-13 21:12:00,51.0,-99.9,-100.00,West,275,7.0,14.0,-999,-99.99,,,-99.99,,2013-01-14 02:12:00,
2013-01-13 21:23:00,51.0,-99.9,-100.00,West,275,13.0,24.0,-999,-99.99,,,-99.99,,2013-01-14 02:23:00,
2013-01-13 21:33:00,51.0,-99.9,-100.00,West,275,13.0,24.0,-999,-99.99,,,-99.99,,2013-01-14 02:33:00,
2013-01-13 21:43:00,51.0,-99.9,-100.00,West,275,13.0,24.0,-999,-99.99,,,-99.99,,2013-01-14 02:43:00,
2013-01-13 22:22:00,54.0,-99.9,-100.00,West,275,11.0,23.0,-999,-99.99,,,-99.99,,2013-01-14 03:22:00,
2013-01-13 22:33:00,55.0,-99.9,-100.00,WNW,290,20.0,29.0,-999,-99.99,,,-99.99,,2013-01-14 03:33:00,
2013-01-13 22:43:00,55.0,-99.9,-100.00,WNW,285,15.0,29.0,-999,-99.99,,,-99.99,,2013-01-14 03:43:00,
2013-01-13 22:53:00,55.0,-99.9,-100.00,WNW,290,14.0,37.0,-999,-99.99,,,-99.99,,2013-01-14 03:53:00,
2013-01-13 23:03:00,56.0,-99.9,-100.00,WNW,300,19.0,22.0,-999,-99.99,,,-99.99,,2013-01-14 04:03:00,
2013-01-13 23:12:00,56.0,-99.9,-100.00,WNW,290,18.0,31.0,-999,-99.99,,,-99.99,,2013-01-14 04:12:00,
2013-01-13 23:22:00,56.0,-99.9,-100.00,WNW,290,16.0,30.0,-999,-99.99,,,-99.99,,2013-01-14 04:22:00,
2013-01-13 23:32:00,56.0,-99.9,-100.00,WNW,285,19.0,32.0,-999,-99.99,,,-99.99,,2013-01-14 04:32:00,
2013-01-13 23:42:00,56.0,-99.9,-100.00,WNW,285,15.0,21.0,-999,-99.99,,,-99.99,,2013-01-14 04:42:00,
2013-01-13 23:53:00,55.0,-99.9,-100.00,WNW,285,19.0,32.0,-999,-99.99,,,-99.99,,2013-01-14 04:53:00,